Change the Weather History Date:

Monday, April 21, 2014

  Actual Average Record
Temperature  
Mean Temperature 44 °F -  
Max Temperature 62 °F 58 °F 85 °F (1957)
Min Temperature 28 °F 43 °F 28 °F (2006)
Degree Days  
Heating Degree Days 20    
Moisture  
Dew Point 32 °F    
Average Humidity 80    
Maximum Humidity 96    
Minimum Humidity 33    
Precipitation  
Precipitation 0.00 in - - ()
Sea Level Pressure  
Sea Level Pressure 30.16 in    
Wind  
Wind Speed 2 mph (SSW)    
Max Wind Speed 14 mph    
Max Gust Speed 18 mph    
Visibility 6 miles    
Events      
Averages and records for this station are not official NWS values.
T = Trace of Precipitation, MM = Missing Value Source: NWS Daily Summary

Daily Weather History Graph

Daily Weather History Graph

Search for Another Location

Airport or City:

Trip Planner

Search our weather history database for the weather conditions in past years. The results will help you decide how hot, cold, wet, or windy it might be!

Date:

Astronomy

Apr. 21, 2014 Rise Set
Actual Time 5:54 AM EDT 7:31 PM EDT
Civil Twilight 5:25 AM EDT 8:00 PM EDT
Nautical Twilight 4:49 AM EDT 8:36 PM EDT
Astronomical Twilight 4:12 AM EDT 9:14 PM EDT
Moon 12:59 AM EDT (4/21) 11:16 AM EDT (4/21)
Length of Visible Light 14h 35m
Length of Day
13h 36m
Waning Gibbous, 58% of the Moon is Illuminated
Apr 21
Waning Gibbous
Apr 22
Last Quarter
Apr 29
New
May 6
First Quarter
May 14
Full

Hourly Weather History & Observations

Time (EDT) Temp. Windchill Dew Point Humidity Pressure Visibility Wind Dir Wind Speed Gust Speed Precip Events Conditions
12:53 AM 34.0 °F - 32.0 °F 92% 30.32 in 7.0 mi Calm Calm - N/A   Clear
1:53 AM 33.1 °F - 30.9 °F 92% 30.30 in 10.0 mi Calm Calm - N/A   Clear
2:06 AM 32.0 °F - 30.0 °F 92% 30.28 in 1.5 mi Calm Calm - N/A   Clear
2:22 AM 32.0 °F - 30.0 °F 92% 30.28 in 10.0 mi Calm Calm - N/A   Clear
2:48 AM 30.2 °F - 28.4 °F 93% 30.27 in 1.0 mi Calm Calm - N/A   Clear
2:53 AM 30.0 °F - 28.9 °F 96% 30.27 in 2.5 mi Calm Calm - N/A   Clear
3:00 AM 30.9 °F - 28.9 °F 92% 30.27 in 6.0 mi Calm Calm - N/A   Clear
3:53 AM 30.9 °F - 28.9 °F 92% 30.26 in 9.0 mi Calm Calm - N/A   Clear
4:38 AM 30.0 °F - 28.0 °F 92% 30.24 in 7.0 mi Calm Calm - N/A   Scattered Clouds
4:42 AM 30.0 °F - 28.0 °F 92% 30.24 in 2.5 mi Calm Calm - N/A   Mostly Cloudy
4:44 AM 30.0 °F - 28.0 °F 92% 30.24 in 1.8 mi Calm Calm - N/A   Mostly Cloudy
4:53 AM 28.9 °F - 28.0 °F 96% 30.25 in 1.2 mi Calm Calm - N/A   Mostly Cloudy
5:04 AM 30.0 °F - 28.0 °F 92% 30.24 in 3.0 mi Calm Calm - N/A   Mostly Cloudy
5:11 AM 28.9 °F - 27.0 °F 92% 30.24 in 2.5 mi Calm Calm - N/A   Scattered Clouds
5:26 AM 30.0 °F - 27.0 °F 88% 30.24 in 9.0 mi Calm Calm - N/A   Clear
5:35 AM 28.9 °F - 27.0 °F 92% 30.24 in 2.5 mi Calm Calm - N/A   Partly Cloudy
5:38 AM 28.9 °F - 27.0 °F 92% 30.24 in 1.0 mi Calm Calm - N/A   Mist
5:44 AM 28.9 °F - 27.0 °F 92% 30.23 in 0.8 mi Calm Calm - N/A   Mist
5:47 AM 28.4 °F - 26.6 °F 93% 30.23 in 1.2 mi Calm Calm - N/A   Partly Cloudy
5:51 AM 28.4 °F - 26.6 °F 93% 30.23 in 3.0 mi Calm Calm - N/A   Partly Cloudy
5:53 AM 30.0 °F - 27.0 °F 88% 30.24 in 4.0 mi Calm Calm - N/A   Partly Cloudy
6:09 AM 28.9 °F - 27.0 °F 92% 30.23 in 1.2 mi Calm Calm - N/A   Partly Cloudy
6:13 AM 28.9 °F - 27.0 °F 92% 30.23 in 0.8 mi Calm Calm - N/A   Mist
6:19 AM 28.9 °F - 28.0 °F 96% 30.23 in 1.5 mi Calm Calm - N/A   Partly Cloudy
6:22 AM 28.9 °F - 28.0 °F 96% 30.23 in 3.0 mi Calm Calm - N/A   Partly Cloudy
6:53 AM 30.9 °F - 30.0 °F 96% 30.24 in 10.0 mi Calm Calm - N/A   Clear
7:53 AM 41.0 °F - 39.0 °F 93% 30.23 in 10.0 mi Calm Calm - N/A   Clear
8:53 AM 46.0 °F 44.8 °F 39.0 °F 76% 30.21 in 10.0 mi South 3.5 mph - N/A   Clear
9:53 AM 51.1 °F - 39.9 °F 66% 30.19 in 10.0 mi SSE 5.8 mph - N/A   Clear
10:53 AM 55.0 °F - 39.9 °F 57% 30.17 in 10.0 mi North - - N/A   Clear
11:53 AM 57.9 °F - 32.0 °F 37% 30.13 in 10.0 mi SSW 9.2 mph - N/A   Clear
12:53 PM 60.1 °F - 30.9 °F 33% 30.09 in 10.0 mi South 8.1 mph - N/A   Clear
1:53 PM 61.0 °F - 36.0 °F 39% 30.06 in 10.0 mi SSW 10.4 mph - N/A   Clear
2:53 PM 60.1 °F - 35.1 °F 39% 30.04 in 10.0 mi SW 12.7 mph - N/A   Clear
3:53 PM 60.1 °F - 37.0 °F 42% 30.00 in 10.0 mi SSW 11.5 mph 18.4 mph N/A   Clear
4:53 PM 59.0 °F - 37.9 °F 46% 29.98 in 10.0 mi SSW 13.8 mph - N/A   Clear
5:53 PM 55.9 °F - 37.9 °F 51% 29.96 in 10.0 mi South 11.5 mph - N/A   Clear
6:53 PM 53.1 °F - 39.0 °F 59% 29.95 in 10.0 mi South 12.7 mph - N/A   Clear
7:53 PM 48.9 °F - 41.0 °F 74% 29.94 in 10.0 mi SSW 9.2 mph - N/A   Clear
8:53 PM 46.9 °F - 41.0 °F 80% 29.93 in 10.0 mi SSW 5.8 mph - N/A   Clear
9:53 PM 46.9 °F - 41.0 °F 80% 29.91 in 10.0 mi South 5.8 mph - N/A   Clear
10:53 PM 46.0 °F 43.9 °F 42.1 °F 86% 29.90 in 10.0 mi SW 4.6 mph - N/A   Clear
11:53 PM 44.1 °F 40.8 °F 41.0 °F 89% 29.89 in 10.0 mi SSW 5.8 mph - N/A   Clear